TimeCST,TemperatureF,Dew PointF,Humidity,Sea Level PressureIn,VisibilityMPH,Wind Direction,Wind SpeedMPH,Gust SpeedMPH,PrecipitationIn,Events,Conditions,WindDirDegrees,DateUTC
12:15 AM,55.4,53.6,94,29.87,7.0,Calm,Calm,-,N/A,Rain,Rain,0,2012-12-08 06:15:00
12:35 AM,55.4,53.6,94,29.86,5.0,Calm,Calm,-,N/A,,Drizzle,0,2012-12-08 06:35:00
12:55 AM,55.4,53.6,94,29.86,4.0,Calm,Calm,-,N/A,,Drizzle,0,2012-12-08 06:55:00
1:15 AM,55.4,53.6,94,29.86,5.0,Calm,Calm,-,0.01,,Overcast,0,2012-12-08 07:15:00
1:35 AM,55.4,53.6,94,29.86,4.0,Calm,Calm,-,0.01,,Overcast,0,2012-12-08 07:35:00
1:55 AM,55.4,53.6,94,29.86,4.0,Calm,Calm,-,0.01,Rain,Light Rain,0,2012-12-08 07:55:00
2:15 AM,55.4,55.4,100,29.86,4.0,SW,3.5,-,N/A,Rain,Rain,220,2012-12-08 08:15:00
2:35 AM,55.4,53.6,94,29.86,4.0,Calm,Calm,-,N/A,,Drizzle,0,2012-12-08 08:35:00
2:55 AM,55.4,53.6,94,29.86,2.5,SSW,4.6,-,N/A,,Overcast,200,2012-12-08 08:55:00
3:15 AM,55.4,55.4,100,29.86,3.0,Calm,Calm,-,N/A,,Overcast,0,2012-12-08 09:15:00
3:35 AM,53.6,53.6,100,29.87,3.0,NNW,4.6,-,N/A,,Overcast,330,2012-12-08 09:35:00
3:55 AM,53.6,51.8,94,29.87,4.0,NW,3.5,-,N/A,,Overcast,320,2012-12-08 09:55:00
4:15 AM,53.6,51.8,94,29.88,4.0,NNW,4.6,-,N/A,,Overcast,330,2012-12-08 10:15:00
4:35 AM,51.8,51.8,100,29.88,4.0,NNW,4.6,-,N/A,,Overcast,330,2012-12-08 10:35:00
4:55 AM,51.8,51.8,100,29.89,5.0,NNW,3.5,-,N/A,,Overcast,330,2012-12-08 10:55:00
5:15 AM,51.8,50.0,94,29.89,4.0,NNW,5.8,-,N/A,,Overcast,330,2012-12-08 11:15:00
5:35 AM,51.8,50.0,94,29.90,4.0,NNW,5.8,-,N/A,,Overcast,330,2012-12-08 11:35:00
6:55 AM,51.8,51.8,100,29.93,4.0,NNW,4.6,-,N/A,,Overcast,340,2012-12-08 12:55:00
7:55 AM,51.8,51.8,100,29.95,2.0,NNW,4.6,-,N/A,,Overcast,330,2012-12-08 13:55:00
8:55 AM,51.8,50.0,94,29.96,4.0,NNW,5.8,-,N/A,,Overcast,340,2012-12-08 14:55:00
9:55 AM,51.8,50.0,94,29.97,5.0,North,5.8,-,N/A,,Overcast,10,2012-12-08 15:55:00
10:55 AM,51.8,48.2,88,29.98,10.0,NNW,9.2,-,N/A,,Overcast,340,2012-12-08 16:55:00
11:12 AM,51.8,48.2,88,29.98,10.0,North,6.9,-,N/A,,Overcast,360,2012-12-08 17:12:00
11:55 AM,51.8,48.2,88,29.98,10.0,North,8.1,-,N/A,,Overcast,360,2012-12-08 17:55:00
12:55 PM,51.8,48.2,88,29.96,10.0,North,11.5,-,N/A,,Overcast,360,2012-12-08 18:55:00
1:55 PM,51.8,48.2,88,29.95,4.0,North,5.8,-,N/A,,Overcast,360,2012-12-08 19:55:00
2:55 PM,48.2,48.2,100,29.96,2.5,NNE,9.2,-,N/A,,Overcast,20,2012-12-08 20:55:00
3:55 PM,48.2,48.2,100,29.98,1.2,NNE,11.5,-,N/A,,Overcast,20,2012-12-08 21:55:00
5:55 PM,48.2,48.2,100,29.98,5.0,NE,9.2,-,N/A,,Overcast,40,2012-12-08 23:55:00
6:55 PM,48.2,46.4,93,29.99,7.0,NE,10.4,-,N/A,,Overcast,40,2012-12-09 00:55:00
7:15 PM,48.2,46.4,93,29.99,7.0,NE,5.8,-,N/A,,Overcast,40,2012-12-09 01:15:00
7:35 PM,48.2,46.4,93,29.99,7.0,East,5.8,-,N/A,,Overcast,80,2012-12-09 01:35:00
7:55 PM,48.2,46.4,93,29.99,7.0,NE,6.9,-,N/A,,Overcast,50,2012-12-09 01:55:00
8:15 PM,50.0,46.4,87,29.98,10.0,ENE,4.6,-,N/A,,Overcast,60,2012-12-09 02:15:00
8:35 PM,50.0,44.6,82,29.98,10.0,East,4.6,-,N/A,,Overcast,80,2012-12-09 02:35:00
8:55 PM,50.0,44.6,82,29.98,10.0,ENE,6.9,-,N/A,,Overcast,70,2012-12-09 02:55:00
9:15 PM,50.0,44.6,82,29.98,7.0,NE,5.8,-,N/A,,Overcast,50,2012-12-09 03:15:00
9:35 PM,50.0,46.4,87,29.97,7.0,East,8.1,-,N/A,,Overcast,80,2012-12-09 03:35:00
9:55 PM,50.0,46.4,87,29.97,7.0,ENE,6.9,-,N/A,,Overcast,70,2012-12-09 03:55:00
10:15 PM,48.2,46.4,93,29.98,7.0,ENE,9.2,-,N/A,,Overcast,70,2012-12-09 04:15:00
10:35 PM,48.2,44.6,87,29.98,7.0,East,5.8,-,N/A,,Overcast,90,2012-12-09 04:35:00
10:55 PM,48.2,44.6,87,29.97,7.0,East,5.8,-,N/A,,Overcast,80,2012-12-09 04:55:00
11:15 PM,48.2,44.6,87,29.97,7.0,ENE,5.8,-,N/A,,Overcast,70,2012-12-09 05:15:00
11:35 PM,48.2,46.4,93,29.97,7.0,East,4.6,-,N/A,,Overcast,100,2012-12-09 05:35:00
11:55 PM,50.0,44.6,82,29.96,7.0,East,6.9,-,N/A,,Overcast,90,2012-12-09 05:55:00